| time (UTC) | temp F | wind direction | speed MPH | gust MPH | rain 1hr in | rain 24hr in | rain mn in | humidity % | barometer mb |
| 20260906194517 | 89 | 0.0 | 0.0 | 0.00 | 0.00 | 0.00 | 64 | 1013.3 | |
| 20260906194019 | 88 | 0.0 | 0.0 | 0.00 | 0.00 | 0.00 | 62 | 1013.2 | |
| 20260906193518 | 89 | 0.0 | 1.0 | 0.00 | 0.00 | 0.00 | 59 | 1013.3 | |
| 20260906193021 | 90 | 90 | 1.0 | 3.0 | 0.00 | 0.00 | 0.00 | 59 | 1013.4 |
| 20260906192520 | 92 | 68 | 3.0 | 8.0 | 0.00 | 0.00 | 0.00 | 55 | 1013.6 |
| 20260906192020 | 95 | 0.0 | 0.0 | 0.00 | 0.00 | 0.00 | 60 | 1013.9 | |
| 20260906191520 | 96 | 225 | 2.0 | 3.0 | 0.00 | 0.00 | 0.00 | 59 | 1013.9 |
| 20260906191018 | 96 | 225 | 2.0 | 2.0 | 0.00 | 0.00 | 0.00 | 56 | 1013.8 |
| 20260906190518 | 95 | 203 | 1.0 | 2.0 | 0.00 | 0.00 | 0.00 | 57 | 1013.7 |
| 20260906190020 | 94 | 203 | 2.0 | 3.0 | 0.00 | 0.00 | 0.00 | 59 | 1013.7 |
| 20260906185521 | 94 | 180 | 3.0 | 6.0 | 0.00 | 0.00 | 0.00 | 58 | 1013.7 |
| 20260906185021 | 94 | 180 | 3.0 | 4.0 | 0.00 | 0.00 | 0.00 | 57 | 1013.8 |
| 20260906184516 | 94 | 0.0 | 1.0 | 0.00 | 0.00 | 0.00 | 61 | 1014.0 | |
| 20260906184018 | 94 | 0.0 | 0.0 | 0.00 | 0.00 | 0.00 | 58 | 1014.0 | |
| 20260906183520 | 94 | 0.0 | 1.0 | 0.00 | 0.00 | 0.00 | 57 | 1014.1 | |
| 20260906183021 | 94 | 203 | 2.0 | 2.0 | 0.00 | 0.00 | 0.00 | 59 | 1014.1 |
| 20260906182520 | 95 | 0.0 | 1.0 | 0.00 | 0.00 | 0.00 | 57 | 1014.3 | |
| 20260906182023 | 95 | 248 | 1.0 | 1.0 | 0.00 | 0.00 | 0.00 | 60 | 1014.4 |
| 20260906181517 | 94 | 158 | 2.0 | 2.0 | 0.00 | 0.00 | 0.00 | 57 | 1014.5 |
| 20260906181020 | 95 | 203 | 2.0 | 4.0 | 0.00 | 0.00 | 0.00 | 57 | 1014.5 |
| 20260906180521 | 95 | 0.0 | 1.0 | 0.00 | 0.00 | 0.00 | 59 | 1014.6 | |
| 20260906180017 | 94 | 0.0 | 1.0 | 0.00 | 0.00 | 0.00 | 59 | 1014.6 | |
| 20260906175520 | 93 | 0.0 | 0.0 | 0.00 | 0.00 | 0.00 | 61 | 1014.7 | |
| 20260906175017 | 93 | 68 | 1.0 | 2.0 | 0.00 | 0.00 | 0.00 | 59 | 1014.6 |
| 20260906174517 | 93 | 68 | 2.0 | 3.0 | 0.00 | 0.00 | 0.00 | 58 | 1014.7 |
| 20260906174021 | 93 | 270 | 1.0 | 1.0 | 0.00 | 0.00 | 0.00 | 60 | 1014.9 |
| 20260906173521 | 93 | 90 | 3.0 | 4.0 | 0.00 | 0.00 | 0.00 | 60 | 1014.9 |
| 20260906173021 | 93 | 90 | 1.0 | 2.0 | 0.00 | 0.00 | 0.00 | 59 | 1014.9 |
| 20260906172518 | 93 | 0.0 | 1.0 | 0.00 | 0.00 | 0.00 | 62 | 1014.9 | |
| 20260906172020 | 92 | 203 | 1.0 | 2.0 | 0.00 | 0.01 | 0.00 | 61 | 1014.9 |
| 20260906171517 | 92 | 90 | 1.0 | 3.0 | 0.00 | 0.03 | 0.00 | 61 | 1015.1 |
| 20260906171016 | 92 | 68 | 2.0 | 5.0 | 0.00 | 0.04 | 0.00 | 63 | 1015.2 |
| 20260906170516 | 92 | 90 | 1.0 | 3.0 | 0.00 | 0.04 | 0.00 | 63 | 1015.2 |
| 20260906170016 | 91 | 180 | 1.0 | 2.0 | 0.00 | 0.04 | 0.00 | 64 | 1015.3 |
| 20260906165521 | 91 | 0.0 | 2.0 | 0.00 | 0.04 | 0.00 | 67 | 1015.3 | |
| 20260906165019 | 91 | 0.0 | 1.0 | 0.00 | 0.04 | 0.00 | 67 | 1015.4 | |
| 20260906164518 | 91 | 68 | 1.0 | 3.0 | 0.00 | 0.04 | 0.00 | 66 | 1015.4 |
| 20260906164017 | 90 | 68 | 1.0 | 2.0 | 0.00 | 0.04 | 0.00 | 70 | 1015.6 |
| 20260906163519 | 90 | 293 | 1.0 | 2.0 | 0.00 | 0.04 | 0.00 | 66 | 1015.4 |
| 20260906163016 | 90 | 203 | 1.0 | 2.0 | 0.00 | 0.04 | 0.00 | 68 | 1015.5 |
| 20260906162520 | 90 | 180 | 1.0 | 3.0 | 0.00 | 0.04 | 0.00 | 68 | 1015.5 |
| 20260906162016 | 90 | 0.0 | 1.0 | 0.00 | 0.04 | 0.00 | 70 | 1015.5 | |
| 20260906161521 | 89 | 0.0 | 1.0 | 0.00 | 0.04 | 0.00 | 70 | 1015.5 | |
| 20260906161019 | 89 | 23 | 1.0 | 2.0 | 0.00 | 0.04 | 0.00 | 70 | 1015.6 |
| 20260906160520 | 89 | 270 | 1.0 | 2.0 | 0.00 | 0.04 | 0.00 | 71 | 1015.7 |
| 20260906160017 | 88 | 248 | 1.0 | 2.0 | 0.00 | 0.04 | 0.00 | 73 | 1015.7 |
| 20260906155521 | 87 | 270 | 1.0 | 1.0 | 0.00 | 0.04 | 0.00 | 73 | 1015.9 |
| 20260906155017 | 87 | 248 | 2.0 | 4.0 | 0.00 | 0.04 | 0.00 | 72 | 1015.9 |
| 20260906154520 | 87 | 0 | 1.0 | 3.0 | 0.00 | 0.04 | 0.00 | 74 | 1015.8 |
| 20260906154020 | 86 | 0.0 | 1.0 | 0.00 | 0.04 | 0.00 | 74 | 1015.8 | |
| 20260906153519 | 86 | 0.0 | 1.0 | 0.00 | 0.04 | 0.00 | 77 | 1015.8 | |
| 20260906153019 | 85 | 0.0 | 1.0 | 0.00 | 0.04 | 0.00 | 76 | 1015.8 | |
| 20260906152516 | 84 | 315 | 1.0 | 1.0 | 0.00 | 0.04 | 0.00 | 77 | 1015.8 |
| 20260906152016 | 84 | 90 | 1.0 | 1.0 | 0.00 | 0.04 | 0.00 | 78 | 1015.8 |
| 20260906151519 | 83 | 0.0 | 1.0 | 0.00 | 0.04 | 0.00 | 78 | 1015.8 | |
| 20260906151023 | 83 | 68 | 1.0 | 2.0 | 0.00 | 0.04 | 0.00 | 78 | 1015.9 |
| 20260906150521 | 82 | 203 | 1.0 | 2.0 | 0.00 | 0.04 | 0.00 | 79 | 1016.0 |
| 20260906150017 | 82 | 90 | 1.0 | 1.0 | 0.00 | 0.04 | 0.00 | 80 | 1016.0 |
| 20260906145516 | 82 | 158 | 1.0 | 1.0 | 0.00 | 0.04 | 0.00 | 81 | 1016.1 |
| 20260906145017 | 82 | 225 | 1.0 | 2.0 | 0.00 | 0.04 | 0.00 | 81 | 1016.1 |
| 20260906144520 | 81 | 0.0 | 0.0 | 0.00 | 0.04 | 0.00 | 81 | 1016.0 | |
| 20260906144022 | 81 | 68 | 1.0 | 2.0 | 0.00 | 0.04 | 0.00 | 83 | 1016.0 |
| 20260906143517 | 81 | 68 | 1.0 | 1.0 | 0.00 | 0.04 | 0.00 | 82 | 1016.1 |
| 20260906143019 | 81 | 0.0 | 0.0 | 0.00 | 0.04 | 0.00 | 83 | 1016.0 | |
| 20260906142520 | 80 | 0.0 | 1.0 | 0.00 | 0.04 | 0.00 | 84 | 1016.1 | |
| 20260906142018 | 80 | 0.0 | 0.0 | 0.00 | 0.04 | 0.00 | 84 | 1016.2 | |
| 20260906141520 | 80 | 0.0 | 1.0 | 0.00 | 0.04 | 0.00 | 84 | 1016.3 | |
| 20260906141018 | 80 | 0.0 | 1.0 | 0.00 | 0.04 | 0.00 | 84 | 1016.3 | |
| 20260906140516 | 80 | 225 | 1.0 | 1.0 | 0.00 | 0.04 | 0.00 | 84 | 1016.4 |
| 20260906140020 | 80 | 203 | 1.0 | 1.0 | 0.00 | 0.04 | 0.00 | 84 | 1016.5 |
| 20260906135519 | 80 | 0.0 | 1.0 | 0.00 | 0.04 | 0.00 | 84 | 1016.4 | |
| 20260906135017 | 79 | 158 | 1.0 | 1.0 | 0.00 | 0.04 | 0.00 | 85 | 1016.5 |
| 20260906134520 | 79 | 0.0 | 1.0 | 0.00 | 0.04 | 0.00 | 86 | 1016.4 | |
| 20260906134016 | 79 | 0.0 | 1.0 | 0.00 | 0.04 | 0.00 | 86 | 1016.4 | |
| 20260906133517 | 79 | 0.0 | 0.0 | 0.00 | 0.04 | 0.00 | 86 | 1016.2 | |
| 20260906133017 | 78 | 0.0 | 0.0 | 0.00 | 0.04 | 0.00 | 87 | 1016.2 | |
| 20260906132521 | 78 | 0.0 | 0.0 | 0.00 | 0.04 | 0.00 | 88 | 1016.3 | |
| 20260906132020 | 78 | 0.0 | 0.0 | 0.00 | 0.04 | 0.00 | 88 | 1016.3 | |
| 20260906131520 | 78 | 0.0 | 0.0 | 0.00 | 0.04 | 0.00 | 90 | 1016.3 | |
| 20260906131017 | 78 | 0.0 | 0.0 | 0.00 | 0.04 | 0.00 | 93 | 1016.3 | |
| 20260906130516 | 77 | 0.0 | 0.0 | 0.00 | 0.04 | 0.00 | 95 | 1016.3 | |
| 20260906130020 | 76 | 0.0 | 0.0 | 0.00 | 0.04 | 0.00 | 95 | 1016.2 | |
| 20260906125520 | 75 | 0.0 | 0.0 | 0.00 | 0.04 | 0.00 | 96 | 1016.2 | |
| 20260906125017 | 75 | 0.0 | 0.0 | 0.00 | 0.04 | 0.00 | 97 | 1016.2 | |
| 20260906124521 | 74 | 0.0 | 0.0 | 0.00 | 0.04 | 0.00 | 97 | 1016.1 | |
| 20260906124019 | 74 | 0.0 | 0.0 | 0.00 | 0.04 | 0.00 | 98 | 1016.2 | |
| 20260906123521 | 74 | 0.0 | 0.0 | 0.00 | 0.04 | 0.00 | 98 | 1016.2 | |
| 20260906123020 | 74 | 0.0 | 0.0 | 0.00 | 0.04 | 0.00 | 98 | 1016.0 | |
| 20260906122520 | 73 | 0.0 | 0.0 | 0.00 | 0.04 | 0.00 | 98 | 1015.9 | |
| 20260906122020 | 73 | 0.0 | 0.0 | 0.00 | 0.04 | 0.00 | 98 | 1015.9 | |
| 20260906121523 | 73 | 0.0 | 0.0 | 0.00 | 0.04 | 0.00 | 98 | 1015.8 | |
| 20260906121019 | 73 | 0.0 | 0.0 | 0.00 | 0.04 | 0.00 | 98 | 1015.7 | |
| 20260906120523 | 73 | 0.0 | 0.0 | 0.00 | 0.04 | 0.00 | 98 | 1015.5 | |
| 20260906120019 | 73 | 0.0 | 0.0 | 0.00 | 0.04 | 0.00 | 98 | 1015.4 | |
| 20260906115518 | 73 | 0.0 | 0.0 | 0.00 | 0.04 | 0.00 | 98 | 1015.4 | |
| 20260906115020 | 73 | 0.0 | 0.0 | 0.00 | 0.04 | 0.00 | 98 | 1015.5 | |
| 20260906114517 | 73 | 0.0 | 0.0 | 0.00 | 0.04 | 0.00 | 98 | 1015.5 | |
| 20260906114018 | 73 | 0.0 | 0.0 | 0.00 | 0.04 | 0.00 | 98 | 1015.5 | |
| 20260906113517 | 72 | 0.0 | 0.0 | 0.00 | 0.04 | 0.00 | 98 | 1015.4 | |
| 20260906113016 | 72 | 0.0 | 0.0 | 0.00 | 0.04 | 0.00 | 98 | 1015.4 | |
| 20260906112519 | 72 | 0.0 | 0.0 | 0.00 | 0.04 | 0.00 | 98 | 1015.2 | |
| 20260906112019 | 72 | 0.0 | 0.0 | 0.00 | 0.04 | 0.00 | 98 | 1015.2 | |
| 20260906111519 | 73 | 0.0 | 0.0 | 0.00 | 0.04 | 0.00 | 97 | 1015.2 | |
| 20260906111019 | 73 | 0.0 | 0.0 | 0.00 | 0.04 | 0.00 | 98 | 1014.9 | |
| 20260906110519 | 73 | 0.0 | 0.0 | 0.00 | 0.04 | 0.00 | 98 | 1014.8 | |
| 20260906110021 | 73 | 0.0 | 0.0 | 0.00 | 0.04 | 0.00 | 97 | 1014.7 | |
| 20260906105521 | 73 | 0.0 | 0.0 | 0.00 | 0.04 | 0.00 | 97 | 1014.8 | |
| 20260906105019 | 73 | 0.0 | 0.0 | 0.00 | 0.04 | 0.00 | 98 | 1014.8 | |
| 20260906104520 | 73 | 0.0 | 0.0 | 0.00 | 0.04 | 0.00 | 98 | 1014.8 | |
| 20260906104016 | 73 | 0.0 | 0.0 | 0.00 | 0.04 | 0.00 | 98 | 1014.7 | |
| 20260906103521 | 73 | 0.0 | 0.0 | 0.00 | 0.04 | 0.00 | 98 | 1014.8 | |
| 20260906103022 | 73 | 0.0 | 0.0 | 0.00 | 0.04 | 0.00 | 98 | 1014.9 | |
| 20260906102518 | 73 | 0.0 | 0.0 | 0.00 | 0.04 | 0.00 | 98 | 1015.0 | |
| 20260906102017 | 73 | 0.0 | 0.0 | 0.00 | 0.04 | 0.00 | 98 | 1015.1 | |
| 20260906101517 | 73 | 0.0 | 0.0 | 0.00 | 0.04 | 0.00 | 97 | 1015.1 | |
| 20260906101019 | 73 | 0.0 | 0.0 | 0.00 | 0.04 | 0.00 | 97 | 1014.9 | |
| 20260906100518 | 74 | 0.0 | 0.0 | 0.00 | 0.04 | 0.00 | 97 | 1014.8 | |
| 20260906100020 | 74 | 0.0 | 0.0 | 0.00 | 0.04 | 0.00 | 97 | 1014.7 | |
| 20260906095522 | 74 | 0.0 | 0.0 | 0.00 | 0.04 | 0.00 | 97 | 1014.7 | |
| 20260906095021 | 74 | 0.0 | 0.0 | 0.00 | 0.04 | 0.00 | 97 | 1014.9 | |
| 20260906094523 | 74 | 0.0 | 0.0 | 0.00 | 0.04 | 0.00 | 97 | 1015.1 | |
| 20260906094019 | 74 | 0.0 | 0.0 | 0.00 | 0.04 | 0.00 | 97 | 1015.0 | |
| 20260906093520 | 74 | 0.0 | 0.0 | 0.00 | 0.04 | 0.00 | 97 | 1015.0 | |
| 20260906093020 | 74 | 0.0 | 0.0 | 0.00 | 0.04 | 0.00 | 97 | 1015.0 | |
| 20260906092520 | 74 | 0.0 | 0.0 | 0.00 | 0.04 | 0.00 | 97 | 1015.0 | |
| 20260906092021 | 74 | 0.0 | 0.0 | 0.00 | 0.04 | 0.00 | 97 | 1015.0 | |
| 20260906091520 | 74 | 0.0 | 0.0 | 0.00 | 0.04 | 0.00 | 97 | 1015.1 | |
| 20260906091020 | 74 | 0.0 | 0.0 | 0.00 | 0.04 | 0.00 | 97 | 1015.1 | |
| 20260906090517 | 74 | 0.0 | 0.0 | 0.00 | 0.04 | 0.00 | 97 | 1015.0 | |
| 20260906090020 | 74 | 0.0 | 0.0 | 0.00 | 0.04 | 0.00 | 97 | 1014.9 | |
| 20260906085519 | 74 | 0.0 | 0.0 | 0.00 | 0.04 | 0.00 | 97 | 1015.1 | |
| 20260906085017 | 74 | 0.0 | 0.0 | 0.00 | 0.04 | 0.00 | 97 | 1015.0 | |
| 20260906084520 | 74 | 0.0 | 0.0 | 0.00 | 0.04 | 0.00 | 97 | 1014.8 | |
| 20260906084019 | 74 | 0.0 | 0.0 | 0.00 | 0.04 | 0.00 | 96 | 1014.7 | |
| 20260906083519 | 74 | 0.0 | 0.0 | 0.00 | 0.04 | 0.00 | 96 | 1014.7 | |
| 20260906083022 | 75 | 0.0 | 0.0 | 0.00 | 0.04 | 0.00 | 96 | 1014.6 | |
| 20260906082516 | 75 | 0.0 | 0.0 | 0.00 | 0.04 | 0.00 | 96 | 1014.6 | |
| 20260906082017 | 75 | 0.0 | 0.0 | 0.00 | 0.04 | 0.00 | 96 | 1014.6 | |
| 20260906081521 | 75 | 0.0 | 0.0 | 0.00 | 0.04 | 0.00 | 96 | 1014.7 | |
| 20260906081020 | 75 | 0.0 | 0.0 | 0.00 | 0.04 | 0.00 | 95 | 1014.6 | |
| 20260906080516 | 75 | 0.0 | 0.0 | 0.00 | 0.04 | 0.00 | 95 | 1014.5 | |
| 20260906080017 | 75 | 0.0 | 0.0 | 0.00 | 0.04 | 0.00 | 95 | 1014.6 | |
| 20260906075518 | 75 | 0.0 | 0.0 | 0.00 | 0.04 | 0.00 | 95 | 1014.7 | |
| 20260906075016 | 75 | 0.0 | 2.0 | 0.00 | 0.04 | 0.00 | 96 | 1014.7 | |
| 20260906074520 | 75 | 0.0 | 0.0 | 0.00 | 0.04 | 0.00 | 96 | 1014.7 | |
| 20260906074017 | 75 | 0.0 | 0.0 | 0.00 | 0.04 | 0.00 | 96 | 1014.7 | |
| 20260906073518 | 75 | 0.0 | 0.0 | 0.00 | 0.04 | 0.00 | 96 | 1014.7 | |
| 20260906073018 | 75 | 0.0 | 1.0 | 0.00 | 0.04 | 0.00 | 96 | 1014.7 | |
| 20260906072517 | 75 | 0.0 | 0.0 | 0.00 | 0.04 | 0.00 | 96 | 1014.5 | |
| 20260906072017 | 75 | 0.0 | 0.0 | 0.00 | 0.04 | 0.00 | 95 | 1014.2 | |
| 20260906071517 | 75 | 0.0 | 0.0 | 0.00 | 0.04 | 0.00 | 96 | 1014.2 | |
| 20260906071016 | 75 | 0.0 | 0.0 | 0.00 | 0.04 | 0.00 | 96 | 1014.1 | |
| 20260906070521 | 75 | 0.0 | 0.0 | 0.00 | 0.04 | 0.00 | 96 | 1014.1 | |
| 20260906070022 | 75 | 0.0 | 0.0 | 0.00 | 0.04 | 0.00 | 96 | 1014.1 | |
| 20260906065520 | 75 | 0.0 | 0.0 | 0.00 | 0.04 | 0.00 | 96 | 1014.1 | |
| 20260906065019 | 75 | 0.0 | 0.0 | 0.00 | 0.04 | 0.00 | 96 | 1014.0 | |
| 20260906064517 | 75 | 0.0 | 0.0 | 0.00 | 0.04 | 0.00 | 96 | 1014.0 | |
| 20260906064020 | 75 | 0.0 | 0.0 | 0.00 | 0.04 | 0.00 | 96 | 1014.2 | |
| 20260906063517 | 75 | 0.0 | 0.0 | 0.00 | 0.04 | 0.00 | 95 | 1014.2 | |
| 20260906063019 | 75 | 0.0 | 0.0 | 0.00 | 0.04 | 0.00 | 95 | 1014.2 | |
| 20260906062520 | 75 | 0.0 | 0.0 | 0.00 | 0.04 | 0.00 | 95 | 1014.4 | |
| 20260906062016 | 75 | 0.0 | 0.0 | 0.00 | 0.04 | 0.00 | 95 | 1014.5 | |
| 20260906061518 | 75 | 0.0 | 0.0 | 0.00 | 0.04 | 0.00 | 95 | 1014.5 | |
| 20260906061017 | 75 | 0.0 | 0.0 | 0.00 | 0.04 | 0.00 | 95 | 1014.5 | |
| 20260906060518 | 75 | 0.0 | 0.0 | 0.00 | 0.04 | 0.00 | 95 | 1014.5 | |
| 20260906060018 | 75 | 0.0 | 0.0 | 0.00 | 0.04 | 0.00 | 95 | 1014.5 | |
| 20260906055516 | 75 | 0.0 | 0.0 | 0.00 | 0.04 | 0.00 | 94 | 1014.6 | |
| 20260906055019 | 75 | 0.0 | 0.0 | 0.00 | 0.04 | 0.00 | 94 | 1014.7 | |
| 20260906054518 | 75 | 0.0 | 0.0 | 0.00 | 0.04 | 0.00 | 94 | 1014.7 | |
| 20260906054019 | 75 | 0.0 | 0.0 | 0.00 | 0.04 | 0.00 | 94 | 1014.8 | |
| 20260906053518 | 76 | 0.0 | 0.0 | 0.00 | 0.04 | 0.00 | 94 | 1014.9 | |
| 20260906053021 | 76 | 0.0 | 0.0 | 0.00 | 0.04 | 0.00 | 94 | 1014.9 | |
| 20260906052520 | 76 | 0.0 | 0.0 | 0.00 | 0.04 | 0.00 | 93 | 1014.9 | |
| 20260906052016 | 76 | 0.0 | 0.0 | 0.00 | 0.04 | 0.00 | 93 | 1015.0 | |
| 20260906051516 | 76 | 0.0 | 0.0 | 0.00 | 0.04 | 0.00 | 93 | 1015.2 | |
| 20260906051016 | 76 | 0.0 | 0.0 | 0.00 | 0.04 | 0.00 | 93 | 1015.2 | |
| 20260906050524 | 76 | 0.0 | 0.0 | 0.00 | 0.04 | 0.00 | 93 | 1015.0 | |
| 20260906050016 | 76 | 0.0 | 0.0 | 0.00 | 0.04 | 0.00 | 93 | 1015.1 | |
| 20260906045516 | 76 | 0.0 | 0.0 | 0.00 | 0.04 | 0.00 | 93 | 1015.2 | |
| 20260906045017 | 76 | 0.0 | 0.0 | 0.00 | 0.04 | 0.00 | 93 | 1015.4 | |
| 20260906044521 | 76 | 0.0 | 0.0 | 0.00 | 0.04 | 0.00 | 93 | 1015.3 | |
| 20260906044019 | 76 | 0.0 | 0.0 | 0.00 | 0.04 | 0.00 | 92 | 1015.3 | |
| 20260906043516 | 76 | 0.0 | 0.0 | 0.00 | 0.04 | 0.00 | 92 | 1015.3 | |
| 20260906043019 | 76 | 0.0 | 0.0 | 0.00 | 0.04 | 0.00 | 92 | 1015.4 | |
| 20260906042518 | 76 | 0.0 | 0.0 | 0.00 | 0.04 | 0.00 | 93 | 1015.3 | |
| 20260906042018 | 76 | 0.0 | 0.0 | 0.00 | 0.04 | 0.00 | 93 | 1015.5 | |
| 20260906041519 | 76 | 0.0 | 0.0 | 0.00 | 0.04 | 0.00 | 93 | 1015.4 | |
| 20260906041020 | 76 | 0.0 | 0.0 | 0.00 | 0.04 | 0.00 | 93 | 1015.5 | |
| 20260906040519 | 76 | 0.0 | 0.0 | 0.00 | 0.04 | 0.00 | 93 | 1015.4 | |
| 20260906040019 | 76 | 0.0 | 0.0 | 0.00 | 0.04 | 0.04 | 93 | 1015.4 | |
| 20260906035521 | 76 | 0.0 | 0.0 | 0.00 | 0.04 | 0.04 | 93 | 1015.5 | |
| 20260906035021 | 76 | 0.0 | 0.0 | 0.00 | 0.04 | 0.04 | 92 | 1015.5 | |
| 20260906034518 | 76 | 0.0 | 0.0 | 0.00 | 0.04 | 0.04 | 92 | 1015.3 | |
| 20260906034020 | 76 | 0.0 | 0.0 | 0.00 | 0.04 | 0.04 | 92 | 1015.2 | |
| 20260906033517 | 76 | 0.0 | 0.0 | 0.00 | 0.04 | 0.04 | 92 | 1015.1 | |
| 20260906033019 | 77 | 0.0 | 0.0 | 0.00 | 0.04 | 0.04 | 92 | 1015.2 | |
| 20260906032522 | 77 | 0.0 | 0.0 | 0.00 | 0.04 | 0.04 | 92 | 1015.4 | |
| 20260906032021 | 77 | 0.0 | 0.0 | 0.00 | 0.04 | 0.04 | 92 | 1015.4 | |
| 20260906031520 | 77 | 0.0 | 0.0 | 0.00 | 0.04 | 0.04 | 91 | 1015.3 | |
| 20260906031017 | 77 | 0.0 | 0.0 | 0.00 | 0.04 | 0.04 | 91 | 1015.1 | |
| 20260906030517 | 77 | 0.0 | 0.0 | 0.00 | 0.04 | 0.04 | 90 | 1015.1 | |
| 20260906030021 | 77 | 0.0 | 0.0 | 0.00 | 0.04 | 0.04 | 90 | 1015.1 | |
| 20260906025521 | 78 | 0.0 | 0.0 | 0.00 | 0.04 | 0.04 | 90 | 1015.0 | |
| 20260906025020 | 78 | 0.0 | 0.0 | 0.00 | 0.04 | 0.04 | 90 | 1015.2 | |
| 20260906024519 | 78 | 0.0 | 1.0 | 0.00 | 0.04 | 0.04 | 90 | 1015.1 | |
| 20260906024018 | 78 | 0.0 | 0.0 | 0.00 | 0.04 | 0.04 | 89 | 1015.2 | |
| 20260906023517 | 78 | 0.0 | 0.0 | 0.00 | 0.04 | 0.04 | 89 | 1015.0 | |
| 20260906023017 | 78 | 0.0 | 0.0 | 0.00 | 0.04 | 0.04 | 89 | 1015.0 | |
| 20260906022522 | 78 | 0.0 | 0.0 | 0.00 | 0.04 | 0.04 | 88 | 1014.9 | |
| 20260906022018 | 78 | 0.0 | 0.0 | 0.00 | 0.04 | 0.04 | 88 | 1014.9 | |
| 20260906021520 | 78 | 0.0 | 0.0 | 0.00 | 0.04 | 0.04 | 88 | 1014.7 | |
| 20260906021020 | 78 | 0.0 | 0.0 | 0.00 | 0.04 | 0.04 | 88 | 1014.7 | |
| 20260906020519 | 78 | 0.0 | 1.0 | 0.00 | 0.04 | 0.04 | 87 | 1014.6 | |
| 20260906020021 | 78 | 0.0 | 0.0 | 0.00 | 0.04 | 0.04 | 87 | 1014.6 | |
| 20260906015518 | 79 | 0.0 | 0.0 | 0.00 | 0.04 | 0.04 | 86 | 1014.7 | |
| 20260906015017 | 79 | 0.0 | 0.0 | 0.00 | 0.04 | 0.04 | 86 | 1014.7 | |
| 20260906014519 | 79 | 0.0 | 0.0 | 0.00 | 0.04 | 0.04 | 86 | 1014.5 | |
| 20260906014022 | 79 | 0.0 | 0.0 | 0.00 | 0.04 | 0.04 | 86 | 1014.4 | |
| 20260906013521 | 79 | 0.0 | 1.0 | 0.00 | 0.04 | 0.04 | 85 | 1014.4 | |
| 20260906013020 | 80 | 0.0 | 0.0 | 0.00 | 0.04 | 0.04 | 85 | 1014.3 | |
| 20260906012520 | 80 | 0.0 | 0.0 | 0.00 | 0.04 | 0.04 | 85 | 1014.4 | |
| 20260906012020 | 80 | 0.0 | 1.0 | 0.00 | 0.04 | 0.04 | 85 | 1014.4 | |
| 20260906011520 | 80 | 0.0 | 0.0 | 0.00 | 0.04 | 0.04 | 84 | 1014.5 | |
| 20260906011017 | 80 | 0.0 | 0.0 | 0.00 | 0.04 | 0.04 | 84 | 1014.5 | |
| 20260906010522 | 81 | 0.0 | 0.0 | 0.00 | 0.04 | 0.04 | 84 | 1014.3 | |
| 20260906010021 | 81 | 0.0 | 0.0 | 0.00 | 0.04 | 0.04 | 83 | 1014.2 | |
| 20260906005520 | 81 | 0.0 | 0.0 | 0.00 | 0.04 | 0.04 | 83 | 1014.1 | |
| 20260906005018 | 81 | 0.0 | 0.0 | 0.00 | 0.04 | 0.04 | 82 | 1014.2 | |
| 20260906004521 | 81 | 0.0 | 0.0 | 0.00 | 0.04 | 0.04 | 82 | 1014.2 | |
| 20260906004021 | 81 | 0.0 | 0.0 | 0.00 | 0.04 | 0.04 | 82 | 1014.1 | |
| 20260906003523 | 82 | 0.0 | 0.0 | 0.00 | 0.04 | 0.04 | 82 | 1014.0 | |
| 20260906003020 | 82 | 0.0 | 0.0 | 0.00 | 0.04 | 0.04 | 82 | 1014.1 | |
| 20260906002518 | 82 | 0.0 | 0.0 | 0.00 | 0.04 | 0.04 | 81 | 1014.1 | |
| 20260906002022 | 83 | 0.0 | 0.0 | 0.00 | 0.04 | 0.04 | 80 | 1014.1 | |
| 20260906001521 | 83 | 0.0 | 0.0 | 0.00 | 0.04 | 0.04 | 80 | 1014.0 | |
| 20260906001021 | 83 | 0.0 | 1.0 | 0.00 | 0.04 | 0.04 | 79 | 1014.1 | |
| 20260906000517 | 83 | 0.0 | 0.0 | 0.00 | 0.04 | 0.04 | 78 | 1014.1 | |
| 20260906000017 | 84 | 0.0 | 1.0 | 0.00 | 0.04 | 0.04 | 78 | 1014.0 | |
| 20260905235519 | 84 | 0.0 | 0.0 | 0.00 | 0.04 | 0.04 | 78 | 1014.0 | |
| 20260905235020 | 85 | 0.0 | 1.0 | 0.00 | 0.04 | 0.04 | 77 | 1014.1 | |
| 20260905234521 | 85 | 0.0 | 1.0 | 0.00 | 0.04 | 0.04 | 76 | 1014.1 | |
| 20260905234019 | 85 | 0.0 | 0.0 | 0.00 | 0.04 | 0.04 | 75 | 1014.2 | |
| 20260905233517 | 85 | 0.0 | 0.0 | 0.00 | 0.04 | 0.04 | 74 | 1014.0 | |
| 20260905233019 | 86 | 0.0 | 0.0 | 0.00 | 0.04 | 0.04 | 75 | 1014.0 | |
| 20260905232517 | 86 | 0.0 | 1.0 | 0.00 | 0.04 | 0.04 | 74 | 1014.1 | |
| 20260905232019 | 86 | 0.0 | 0.0 | 0.00 | 0.04 | 0.04 | 73 | 1014.1 | |
| 20260905231518 | 87 | 0.0 | 2.0 | 0.00 | 0.04 | 0.04 | 72 | 1014.0 | |
| 20260905231017 | 87 | 0.0 | 1.0 | 0.00 | 0.04 | 0.04 | 73 | 1013.9 | |
| 20260905230520 | 88 | 0.0 | 0.0 | 0.00 | 0.04 | 0.04 | 72 | 1013.8 | |
| 20260905230017 | 88 | 0.0 | 2.0 | 0.00 | 0.04 | 0.04 | 71 | 1013.9 | |
| 20260905225523 | 88 | 0.0 | 1.0 | 0.00 | 0.04 | 0.04 | 72 | 1013.9 | |
| 20260905225016 | 88 | 203 | 1.0 | 1.0 | 0.00 | 0.04 | 0.04 | 72 | 1013.9 |
| 20260905224521 | 88 | 203 | 1.0 | 2.0 | 0.00 | 0.04 | 0.04 | 74 | 1013.9 |
| 20260905224019 | 88 | 203 | 2.0 | 3.0 | 0.00 | 0.04 | 0.04 | 74 | 1013.9 |
| 20260905223519 | 89 | 225 | 1.0 | 2.0 | 0.00 | 0.04 | 0.04 | 73 | 1014.0 |
| 20260905223017 | 89 | 158 | 2.0 | 3.0 | 0.00 | 0.04 | 0.04 | 71 | 1013.8 |
| 20260905222520 | 90 | 180 | 2.0 | 4.0 | 0.00 | 0.04 | 0.04 | 70 | 1013.8 |
| 20260905222017 | 90 | 0.0 | 2.0 | 0.00 | 0.04 | 0.04 | 69 | 1013.9 | |
| 20260905221520 | 90 | 0.0 | 0.0 | 0.00 | 0.04 | 0.04 | 70 | 1013.8 | |
| 20260905221020 | 90 | 248 | 1.0 | 2.0 | 0.00 | 0.04 | 0.04 | 69 | 1013.8 |
| 20260905220516 | 90 | 248 | 2.0 | 4.0 | 0.00 | 0.04 | 0.04 | 71 | 1014.0 |
| 20260905220021 | 90 | 0.0 | 2.0 | 0.00 | 0.04 | 0.04 | 70 | 1014.0 | |
| 20260905215518 | 90 | 248 | 3.0 | 4.0 | 0.00 | 0.04 | 0.04 | 70 | 1014.1 |
| 20260905215021 | 91 | 248 | 1.0 | 2.0 | 0.00 | 0.04 | 0.04 | 70 | 1014.3 |
| 20260905214517 | 91 | 0.0 | 2.0 | 0.00 | 0.04 | 0.04 | 70 | 1014.3 | |
| 20260905214019 | 91 | 0.0 | 1.0 | 0.00 | 0.04 | 0.04 | 70 | 1014.4 | |
| 20260905213520 | 91 | 248 | 1.0 | 2.0 | 0.00 | 0.04 | 0.04 | 71 | 1014.3 |
| 20260905213020 | 92 | 293 | 2.0 | 3.0 | 0.00 | 0.04 | 0.04 | 70 | 1014.3 |
| 20260905212522 | 92 | 248 | 1.0 | 2.0 | 0.00 | 0.04 | 0.04 | 71 | 1014.3 |
| 20260905212024 | 92 | 0.0 | 1.0 | 0.00 | 0.04 | 0.04 | 71 | 1014.3 | |
| 20260905211520 | 92 | 0.0 | 1.0 | 0.00 | 0.04 | 0.04 | 70 | 1014.3 | |
| 20260905211020 | 93 | 248 | 1.0 | 2.0 | 0.00 | 0.04 | 0.04 | 71 | 1014.3 |
| 20260905210520 | 93 | 293 | 2.0 | 3.0 | 0.00 | 0.04 | 0.04 | 70 | 1014.3 |
| 20260905210021 | 93 | 315 | 1.0 | 3.0 | 0.00 | 0.04 | 0.04 | 70 | 1014.3 |
| 20260905205519 | 94 | 248 | 1.0 | 4.0 | 0.00 | 0.04 | 0.04 | 69 | 1014.3 |
| 20260905205019 | 94 | 135 | 2.0 | 3.0 | 0.00 | 0.04 | 0.04 | 66 | 1014.5 |
| 20260905204517 | 94 | 225 | 1.0 | 1.0 | 0.00 | 0.04 | 0.04 | 64 | 1014.5 |
| 20260905204024 | 94 | 0.0 | 1.0 | 0.00 | 0.04 | 0.04 | 64 | 1014.5 | |
| 20260905203519 | 94 | 0.0 | 1.0 | 0.00 | 0.04 | 0.04 | 64 | 1014.6 | |
| 20260905203021 | 93 | 0.0 | 1.0 | 0.00 | 0.04 | 0.04 | 65 | 1014.7 | |
| 20260905202517 | 93 | 203 | 2.0 | 3.0 | 0.00 | 0.04 | 0.04 | 65 | 1014.7 |
| 20260905202020 | 93 | 225 | 1.0 | 2.0 | 0.00 | 0.04 | 0.04 | 65 | 1014.8 |
| 20260905201520 | 93 | 0.0 | 1.0 | 0.00 | 0.04 | 0.04 | 68 | 1014.9 | |
| 20260905201018 | 92 | 68 | 1.0 | 2.0 | 0.00 | 0.04 | 0.04 | 68 | 1014.9 |
| 20260905200519 | 92 | 0.0 | 2.0 | 0.00 | 0.04 | 0.04 | 70 | 1015.0 | |
| 20260905200016 | 91 | 0.0 | 0.0 | 0.00 | 0.04 | 0.04 | 72 | 1015.0 | |
| 20260905195521 | 91 | 68 | 2.0 | 2.0 | 0.00 | 0.04 | 0.04 | 73 | 1015.1 |
| 20260905195017 | 91 | 270 | 1.0 | 2.0 | 0.00 | 0.04 | 0.04 | 72 | 1015.1 |